Flag for Russia Weather past 2 weeks in Yuzhno-Sakhalinsk, Russia

Now
43 °F

Clear.


Feels Like: 36 °F
Forecast: 26 / 38 °F
Wind: 13 mph from Northwest

Location: Yuzhno Airport-Sakhalinsk

Current Time: Oct 21, 2014 at 3:05:38 PM

Latest Report: Oct 21, 2014 at 2:30 PM


Visibility: N/A

Pressure: 30.04 "Hg

Humidity: 34%

Dew point: 16 °F

Location of Yuzhno-SakhalinskLocation

Historic Weather in Yuzhno-Sakhalinsk — Graph

°F

Yuzhno-Sakhalinsk temperature yesterday

Maximum temperature yesterday: 63 °F (at 10:00 AM)
Minimum temperature yesterday: 55 °F (at 9:30 PM)
Average temperature yesterday: 59 °F

Past Weeks' High & Low Weather Summary

 TemperatureHumidityPressure
High64 °F (Oct 19, 1:30 PM)100% (Oct 8, 3:00 AM)30.39 "Hg (Oct 8, 3:00 AM)
Low18 °F (Oct 15, 6:30 AM)21% (Oct 6, 2:00 PM)29.68 "Hg (Oct 10, 11:00 AM)
Average45 °F77%29.98 "Hg
* Reported Oct 6 1:00 PM — Oct 21 1:30 PM, Yuzhno-Sakhalinsk, Weather by CustomWeather, © 2014

Note: Actual official high and low records may vary slightly from our data, if they occured in-between our weather recording intervals... More about our weather records

Advertising

Yuzhno-Sakhalinsk weather history for previous 24 hours

 ConditionsComfort  
Time TempWeatherWind HumidityBarometerVisibility
1:30 PM
Oct 21
43 °FClear.10 mph34%30.04 "HgN/A
1:00 PM41 °FClear.10 mph33%30.04 "HgN/A
12:30 PM41 °FClear.10 mph33%30.04 "HgN/A
12:00 PM41 °FClear.10 mph33%30.07 "HgN/A
11:30 AM41 °FClear.13 mph36%30.04 "HgN/A
11:00 AM41 °FClear.10 mph36%30.04 "HgN/A
10:30 AM41 °FClear.10 mph36%30.07 "HgN/A
10:00 AM39 °FClear.15 mph36%30.04 "HgN/A
9:30 AM39 °FPassing clouds.10 mph42%30.04 "HgN/A
9:00 AM37 °FScattered clouds.6 mph48%30.04 "HgN/A
8:30 AM37 °FPassing clouds.6 mph48%30.04 "HgN/A
8:00 AM37 °FPassing clouds.10 mph48%30.01 "HgN/A
7:30 AM39 °FPassing clouds.10 mph45%30.01 "HgN/A
7:00 AM41 °FPassing clouds.10 mph45%30.01 "HgN/A
6:30 AM41 °FPassing clouds.8 mph49%30.01 "HgN/A
6:00 AM43 °FPassing clouds.8 mph46%29.98 "HgN/A
5:00 AM43 °FPassing clouds.17 mph53%29.98 "HgN/A
4:00 AM45 °FPassing clouds.10 mph57%29.95 "HgN/A
3:00 AM45 °FPassing clouds.6 mph61%29.92 "HgN/A
2:00 AM48 °FPassing clouds.8 mph50%29.89 "HgN/A
1:00 AM50 °FPassing clouds.6 mph76%29.89 "Hg5 mi
12:00 AM54 °FPassing clouds.13 mph67%29.86 "Hg5 mi
11:00 PM
Oct 20
55 °FPassing clouds.6 mph82%29.83 "Hg5 mi
10:00 PM55 °FPassing clouds.1 mph88%29.80 "Hg5 mi
9:30 PM55 °FPassing clouds.3 mph88%29.77 "Hg5 mi
9:00 PM57 °FPassing clouds.6 mph88%29.77 "HgN/A
8:30 PM57 °FPassing clouds.8 mph88%29.77 "HgN/A
8:00 PM57 °FPassing clouds.8 mph88%29.77 "HgN/A
7:30 PM57 °FPartly sunny.8 mph88%29.77 "HgN/A
7:00 PM59 °FSprinkles. Partly sunny.8 mph82%29.77 "Hg5 mi
6:30 PM59 °FPartly sunny.10 mph82%29.77 "HgN/A
6:00 PM61 °FPartly sunny.10 mph77%29.77 "HgN/A
5:30 PM61 °FPartly sunny.13 mph77%29.77 "HgN/A
5:00 PM61 °FPartly sunny.10 mph77%29.77 "HgN/A
4:30 PM61 °FPartly sunny.13 mph77%29.77 "HgN/A
4:00 PM61 °FPartly sunny.15 mph77%29.77 "HgN/A
Weather by CustomWeather, © 2014

See weather overviewHow to use our weather pages